• In Kazakhstan
  • List of Countries
  • For 7 days
  • Water Temperature
  • Satellite Maps
  • Weather Map
  • News
  • Weather Widgets
  • user-avatar
    Login

    Hourly Weather Kniazyce

    Today, 20 February, Wednesday

    Time Temperature Precipitation Wind Pressure Humidity
    00:00 +4°C° 0 mm 4 mps 738 mmHg 80%
    01:00 +4°C° 0 mm 4 mps 738 mmHg 82%
    02:00 +4°C° 0 mm 3 mps 738 mmHg 84%
    03:00 +4°C° 0.4 mm 4 mps 738 mmHg 85%
    04:00 +4°C° 0.4 mm 4 mps 738 mmHg 87%
    05:00 +4°C° 0.4 mm 4 mps 739 mmHg 89%
    06:00 +4°C° 0.2 mm 4 mps 739 mmHg 89%
    07:00 +3°C° 0.2 mm 4 mps 739 mmHg 90%
    08:00 +3°C° 0.2 mm 4 mps 739 mmHg 91%
    09:00 +2°C° 0 mm 5 mps 739 mmHg 87%
    10:00 +2°C° 0 mm 5 mps 740 mmHg 84%
    11:00 +3°C° 0 mm 6 mps 740 mmHg 81%
    12:00 +3°C° 0.1 mm 6 mps 740 mmHg 79%
    13:00 +3°C° 0.1 mm 6 mps 740 mmHg 76%
    14:00 +3°C° 0.1 mm 6 mps 741 mmHg 74%
    15:00 +3°C° 0.1 mm 6 mps 741 mmHg 74%
    16:00 +3°C° 0.1 mm 5 mps 741 mmHg 75%
    17:00 +3°C° 0.1 mm 5 mps 741 mmHg 75%
    18:00 +2°C° 0 mm 5 mps 741 mmHg 76%
    19:00 +2°C° 0 mm 5 mps 742 mmHg 77%
    20:00 +3°C° 0 mm 4 mps 742 mmHg 78%
    21:00 +3°C° 0 mm 4 mps 742 mmHg 78%
    22:00 +3°C° 0 mm 4 mps 742 mmHg 78%
    23:00 +3°C° 0 mm 4 mps 743 mmHg 77%

    Tomorrow, 21 February, Thursday

    Time Temperature Precipitation Wind Pressure Humidity
    00:00 +3°C° 0 mm 4 mps 743 mmHg 79%
    01:00 +3°C° 0 mm 4 mps 743 mmHg 80%
    02:00 +1°C° 0 mm 4 mps 744 mmHg 81%
    03:00 +1°C° 0 mm 4 mps 744 mmHg 82%
    04:00 +1°C° 0 mm 4 mps 744 mmHg 84%
    05:00 +1°C° 0 mm 4 mps 744 mmHg 85%
    06:00 +1°C° 0 mm 4 mps 744 mmHg 85%
    07:00 +1°C° 0 mm 4 mps 744 mmHg 85%
    08:00 +1°C° 0 mm 4 mps 744 mmHg 85%
    09:00 +3°C° 0 mm 4 mps 744 mmHg 82%
    10:00 +3°C° 0 mm 5 mps 744 mmHg 78%
    11:00 +5°C° 0 mm 5 mps 744 mmHg 74%
    12:00 +5°C° 0 mm 5 mps 744 mmHg 72%
    13:00 +6°C° 0 mm 5 mps 743 mmHg 69%
    14:00 +7°C° 0 mm 5 mps 743 mmHg 66%
    15:00 +6°C° 0.2 mm 5 mps 742 mmHg 69%
    16:00 +6°C° 0.2 mm 4 mps 742 mmHg 71%
    17:00 +5°C° 0.2 mm 4 mps 741 mmHg 74%
    18:00 +5°C° 0.6 mm 4 mps 741 mmHg 76%
    19:00 +5°C° 0.6 mm 5 mps 741 mmHg 78%
    20:00 +3°C° 0.6 mm 5 mps 741 mmHg 80%
    21:00 +3°C° 0.5 mm 5 mps 741 mmHg 82%
    22:00 +3°C° 0.5 mm 5 mps 740 mmHg 84%
    23:00 +3°C° 0.5 mm 5 mps 740 mmHg 86%

    Day after tomorrow, 22 February, Friday

    Time Temperature Precipitation Wind Pressure Humidity
    00:00 +3°C° 0.4 mm 5 mps 740 mmHg 87%
    01:00 +3°C° 0.4 mm 5 mps 740 mmHg 88%
    02:00 +3°C° 0.4 mm 5 mps 739 mmHg 89%
    03:00 +3°C° 0.6 mm 5 mps 739 mmHg 90%
    04:00 +3°C° 0.6 mm 5 mps 739 mmHg 91%
    05:00 +5°C° 0.6 mm 5 mps 739 mmHg 93%
    06:00 +3°C° 1.1 mm 5 mps 739 mmHg 93%
    07:00 +3°C° 1.1 mm 5 mps 740 mmHg 93%
    08:00 +3°C° 1.1 mm 5 mps 740 mmHg 93%
    09:00 +1°C° 0.8 mm 5 mps 741 mmHg 91%
    10:00 -1°C° 0.8 mm 5 mps 742 mmHg 89%
    11:00 -4°C° 0.8 mm 6 mps 743 mmHg 87%
    12:00 -4°C° 0.1 mm 6 mps 744 mmHg 81%
    13:00 -4°C° 0.1 mm 6 mps 745 mmHg 75%
    14:00 -4°C° 0.1 mm 6 mps 746 mmHg 69%
    15:00 -4°C° 0 mm 6 mps 747 mmHg 68%
    16:00 -5°C° 0 mm 6 mps 748 mmHg 67%
    17:00 -6°C° 0 mm 6 mps 748 mmHg 67%
    18:00 -6°C° 0 mm 6 mps 749 mmHg 66%
    19:00 -7°C° 0 mm 5 mps 750 mmHg 66%
    20:00 -8°C° 0 mm 5 mps 751 mmHg 66%
    21:00 -8°C° 0 mm 5 mps 751 mmHg 64%
    22:00 -8°C° 0 mm 5 mps 752 mmHg 62%
    23:00 -8°C° 0 mm 5 mps 753 mmHg 59%

    23 February, Saturday

    Time Temperature Precipitation Wind Pressure Humidity
    00:00 -8°C° 0 mm 4 mps 753 mmHg 57%
    01:00 -8°C° 0 mm 4 mps 753 mmHg 55%
    02:00 -8°C° 0 mm 4 mps 754 mmHg 53%
    03:00 -8°C° 0 mm 4 mps 754 mmHg 53%
    04:00 -9°C° 0 mm 4 mps 754 mmHg 53%
    05:00 -9°C° 0 mm 4 mps 754 mmHg 53%
    06:00 -9°C° 0 mm 4 mps 754 mmHg 54%
    07:00 -8°C° 0 mm 3 mps 754 mmHg 55%
    08:00 -8°C° 0 mm 3 mps 755 mmHg 55%
    09:00 -7°C° 0 mm 3 mps 755 mmHg 52%
    10:00 -7°C° 0 mm 4 mps 755 mmHg 49%
    11:00 -5°C° 0 mm 4 mps 755 mmHg 46%
    12:00 -5°C° 0 mm 4 mps 755 mmHg 42%
    13:00 -4°C° 0 mm 4 mps 755 mmHg 39%
    14:00 -4°C° 0 mm 5 mps 755 mmHg 35%
    15:00 -3°C° 0 mm 4 mps 755 mmHg 36%
    16:00 -3°C° 0 mm 4 mps 755 mmHg 36%
    17:00 -3°C° 0 mm 4 mps 754 mmHg 37%
    18:00 -4°C° 0 mm 3 mps 755 mmHg 40%
    19:00 -5°C° 0 mm 3 mps 755 mmHg 44%
    20:00 -5°C° 0 mm 2 mps 755 mmHg 48%
    21:00 -5°C° 0 mm 2 mps 755 mmHg 49%
    22:00 -5°C° 0 mm 2 mps 755 mmHg 50%
    23:00 -3°C° 0 mm 1 mps 755 mmHg 51%

    24 February, Sunday

    Time Temperature Precipitation Wind Pressure Humidity
    00:00 -3°C° 0 mm 1 mps 755 mmHg 51%
    01:00 -3°C° 0 mm 1 mps 754 mmHg 51%
    02:00 -3°C° 0 mm 1 mps 754 mmHg 52%
    03:00 -3°C° 0 mm 1 mps 754 mmHg 52%
    04:00 -5°C° 0 mm 2 mps 753 mmHg 52%
    05:00 -5°C° 0 mm 2 mps 753 mmHg 52%
    06:00 -5°C° 0 mm 2 mps 753 mmHg 52%
    07:00 -5°C° 0 mm 2 mps 753 mmHg 51%
    08:00 -5°C° 0 mm 2 mps 752 mmHg 51%
    09:00 -4°C° 0 mm 2 mps 752 mmHg 47%
    10:00 -3°C° 0 mm 2 mps 752 mmHg 43%
    11:00 -2°C° 0 mm 3 mps 752 mmHg 40%
    12:00 -1°C° 0 mm 3 mps 751 mmHg 40%
    13:00 -1°C° 0 mm 3 mps 751 mmHg 40%
    14:00 0°C° 0 mm 3 mps 751 mmHg 41%
    15:00 +1°C° 0 mm 2 mps 750 mmHg 42%
    16:00 +1°C° 0 mm 2 mps 750 mmHg 44%
    17:00 +2°C° 0 mm 1 mps 750 mmHg 45%
    18:00 +2°C° 0 mm 1 mps 750 mmHg 48%
    19:00 +1°C° 0 mm 1 mps 750 mmHg 51%
    20:00 +1°C° 0 mm 1 mps 750 mmHg 53%
    21:00 +1°C° 0 mm 1 mps 750 mmHg 58%
    22:00 0°C° 0 mm 1 mps 750 mmHg 62%
    23:00 0°C° 0 mm 1 mps 750 mmHg 67%

    25 February, Monday

    Time Temperature Precipitation Wind Pressure Humidity
    00:00 0°C° 0 mm 1 mps 750 mmHg 70%
    01:00 0°C° 0 mm 1 mps 750 mmHg 74%
    02:00 -1°C° 0 mm 1 mps 750 mmHg 78%
    03:00 -1°C° 0 mm 1 mps 750 mmHg 80%
    04:00 0°C° 0 mm 1 mps 750 mmHg 82%
    05:00 0°C° 0 mm 1 mps 749 mmHg 85%
    06:00 0°C° 0 mm 1 mps 749 mmHg 86%
    07:00 0°C° 0 mm 1 mps 749 mmHg 87%
    08:00 0°C° 0 mm 1 mps 749 mmHg 88%
    09:00 +1°C° 0 mm 1 mps 749 mmHg 84%
    10:00 +2°C° 0 mm 1 mps 749 mmHg 80%
    11:00 +2°C° 0 mm 2 mps 749 mmHg 75%
    12:00 +2°C° 0 mm 2 mps 749 mmHg 74%
    13:00 +3°C° 0 mm 2 mps 748 mmHg 73%
    14:00 +4°C° 0 mm 2 mps 748 mmHg 73%
    15:00 +3°C° 0 mm 2 mps 748 mmHg 73%
    16:00 +3°C° 0 mm 2 mps 748 mmHg 74%
    17:00 +3°C° 0 mm 2 mps 747 mmHg 75%
    18:00 +3°C° 0 mm 2 mps 747 mmHg 79%
    19:00 +2°C° 0 mm 2 mps 747 mmHg 83%
    20:00 +1°C° 0 mm 2 mps 747 mmHg 87%
    21:00 +1°C° 0 mm 2 mps 748 mmHg 90%
    22:00 0°C° 0 mm 3 mps 748 mmHg 93%
    23:00 -1°C° 0 mm 3 mps 748 mmHg 96%
    Show more